Regional Weather Roundup
Issued by NWS

Home | Current Version | Previous Version | Graphics & Text | Print | Product List | Glossary On
Versions: 1 2 3 4 5 6 7 8 9 10 11 12 13 14 15 16 17 18 19 20 21 22 23 24 25 26 27 28 29 30 31 32 33 34 35 36 37 38 39 40 41 42 43 44 45 46 47 48 49 50
000
ASUS43 KTOP 290808
RWRKS

WEATHER ROUNDUP FOR KANSAS
NATIONAL WEATHER SERVICE GOODLAND KS
300 AM CDT SAT APR 29 2017

NOTE:  "FAIR" INDICATES FEW OR NO CLOUDS BELOW 12,000 FEET WITH NO
SIGNIFICANT WEATHER AND/OR OBSTRUCTIONS TO VISIBILITY.

KSZ001>006-013>018-027>032-041>047-290900-
NORTHWEST KANSAS

CITY           SKY/WX    TMP DP  RH WIND       PRES   REMARKS
GOODLAND       LGT SNOW  32  32 100 NE21      29.99F FOG     WCI  20
HAYS           LGT RAIN  39  37  92 N21       29.94S WCI  29
HILL CITY      CLOUDY    39  38  96 N17G25    30.00F FOG     WCI  30
RUSSELL        LGT RAIN  39  38  96 N20G25    29.90F WCI  29
$$

KSZ061>065-074>080-084>089-290900-
SOUTHWEST KANSAS

CITY           SKY/WX    TMP DP  RH WIND       PRES   REMARKS
DODGE CITY     RAIN      37  36  96 N21G32    29.90R FOG     WCI  26
ELKHART          N/A     31  27  86 N9          N/A
GARDEN CITY    LGT SNOW  33  31  92 N18       29.90F FOG     WCI  22
GREAT BEND     RAIN      39  38  96 N20       29.89R WCI  29
LIBERAL        LGT RAIN  38  37  97 N25G32    29.82F WCI  27
PRATT          DRIZZLE   38  37  93 N22G28    29.84R WCI  28
$$

KSZ066>073-081>083-090>101-290900-
SOUTHEAST KANSAS

CITY           SKY/WX    TMP DP  RH WIND       PRES   REMARKS
CHANUTE        CLOUDY    51  50  96 N15G26    29.82F FOG
COFFEYVILLE    TSTM      57  56  96 N15G22    29.74R FOG
HUTCHINSON     CLOUDY    42  40  92 N20G31    29.82F
MEDICINE LODGE   N/A     42  39  89 N20G29    29.80S
NEWTON         CLOUDY    43  41  93 N18G25    29.83S
PARSONS        CLOUDY    54  53  97 N14G21    29.78R FOG
WICHITA INTL   CLOUDY    46  43  89 N22G35    29.79F
WICHITA JABRA  CLOUDY    44  43  96 NE18      29.79F
WICHITA MCCONL CLOUDY    46  42  86 NE16G25   29.78S
WINFIELD       TSTM      50  47  89 N14G35    29.76S
$$

KSZ007>012-019>026-033>040-048>060-102>105-290900-
NORTHEAST KANSAS

CITY           SKY/WX    TMP DP  RH WIND       PRES   REMARKS
CONCORDIA      CLOUDY    40  39  97 NE16G26   29.93S WCI  31
EMPORIA        CLOUDY    44  44 100 NE15      29.84R FOG
LAWRENCE       CLOUDY    45  45 100 NE8G16    29.91S FOG
MANHATTAN      CLOUDY    44  41  89 NE14G25   29.90R
MARYSVILLE     CLOUDY    41  39  93 NE14G25   29.94R
OLATHE IND     FOG       44  44 100 NE15      29.91R VSB 1
OLATHE EXE     CLOUDY    44  44 100 NE12G22   29.90S FOG
SALINA         CLOUDY    44  41  89 N20       29.89F
TOPEKA BILLARD CLOUDY    46  45  96 NE13      29.91R
TOPEKA FORBES  CLOUDY    46  44  93 NE9       29.89R FOG
$$




USA.gov is the U.S. government's official web portal to all federal, state and local government web resources and services.